Regional Weather Roundup
Issued by NWS Green Bay, WI

Home | Current Version | Previous Version | Text Only | Print | Product List | Glossary On
Versions: 1 2 3 4 5 6 7 8 9 10 11 12 13 14 15 16 17 18 19 20 21 22 23 24 25 26 27 28 29 30 31 32 33 34 35 36 37 38 39 40 41 42 43 44 45 46 47 48 49 50
000
ASUS43 KGRB 010611
RWRGRB

NORTH-CENTRAL AND NORTHEAST WISCONSIN REGIONAL WEATHER ROUNDUP
NATIONAL WEATHER SERVICE GREEN BAY WI
100 AM CDT WED JUN 01 2016

WIZ005-009-010>012-018-019-010700-
NORTH CENTRAL WISCONSIN

CITY           SKY/WX    TMP DP  RH WIND       PRES   REMARKS
IRONWOOD       NOT AVBL
MANITOWISH WTR CLOUDY    58  58 100 SE8       29.88F
ARBOR VITAE    CLOUDY    60  58  94 S8        29.90S
EAGLE RIVER    LGT RAIN  57  56  97 S6        29.91S
LAND O LAKES   RAIN      57  55  94 S6        29.92S
RHINELANDER    RAIN      60  58  92 S9        29.92S FOG
PHILLIPS       CLOUDY    60  60 100 S7        29.88S
ANTIGO         LGT RAIN  56  56 100 SE10      29.95S
TOMAHAWK       RAIN      59  58  96 S3        29.91S
MERRILL        LGT RAIN  60  60 100 SE6       29.93S
$$

WIZ013-073-010700-
NORTHEAST WISCONSIN

CITY           SKY/WX    TMP DP  RH WIND       PRES   REMARKS
IRON MOUNTAIN  CLOUDY    58  50  75 CALM      29.93F
MARINETTE      CLOUDY    59  53  80 W3        29.96R
OCONTO         CLOUDY   N/A N/A N/A CALM      29.95R
$$

WIZ017-030-035>037-045-010700-
CENTRAL WISCONSIN

CITY           SKY/WX    TMP DP  RH WIND       PRES   REMARKS
MEDFORD        DRIZZLE   60  60 100 S10       29.90S
WAUSAU         LGT RAIN  62  59  90 SE3       29.90F
MOSINEE        LGT RAIN  59  59 100 SE6       29.93S
MARSHFIELD     CLOUDY    62  59  90 S8        29.91R
WISC RAPIDS    LGT RAIN  61  59  93 SE7       29.93S
STEVENS POINT  RAIN      60  59  99 SE5       29.93S
WAUPACA        RAIN      65  64  97 S3        29.96R
SHAWANO        DRIZZLE   61  55  82 SE5       29.95F
CLINTONVILLE   CLOUDY    59  55  88 SE3       29.95R
WAUTOMA        LGT RAIN N/A N/A N/A SE6       29.94F
$$

WIZ038-039-048-051-010700-
FOX VALLEY

CITY           SKY/WX    TMP DP  RH WIND       PRES   REMARKS
NWS GREEN BAY  CLOUDY    60  54  80 SW3       29.95S
APPLETON       DRIZZLE   59  54  82 S3        29.94S
OSHKOSH        LGT RAIN  62  58  86 SW5       29.96R
FOND DU LAC    LGT RAIN  61  57  87 SE9       29.94F
$$

WIZ022-050-052-010700-
EAST CENTRAL WISCONSIN

CITY           SKY/WX    TMP DP  RH WIND       PRES   REMARKS
EPHRAIM        CLOUDY    58  50  77 SE5       29.94R
STURGEON BAY   CLOUDY    58  50  75 SE7       29.95F
MANITOWOC      LGT RAIN  59  51  75 SE5       29.95F
SHEBOYGAN      CLOUDY    57  53  86 CALM      29.95F
$$

LMZ563-521-522-541>543-010700-
LAKESHORE

STATION/POSITION TIME  TEMP    WIND        PRES    VSBY  WAVE
                       AIR SEA DIR/SP/G                  HT/PER
                 (UTC) (F)     (DEG/KT/KT) (MB)    (MI)  (FT/S)
SHEBOYGAN LKSHOR 0600   59     180/  3/  4 1014.8F
KEWAUNEE LKSHORE 0500   54     310/  1/  2 1013.9F
ALGOMA MARINA    0502             CALM       N/A
NORTHPORT PIER   0500   57     120/  7/  8 1014.2F
N MID LAKE BUOY  0550   53 48  150/  8/  8 1014.7S         2/ 4
SISTER BAY LKSHO 0520   59     120/  9/ 13   N/A
CHAMBERS ISLAND  0500   62      50/  3/  5 1013.9F
MENOMINEE LKSHOR 0500   59     360/  5/  5 1012.8F
$$




USA.gov is the U.S. government's official web portal to all federal, state and local government web resources and services.